Helicity
33 40 32 17 24 26 17 18 14 5 3 1 5 2 6 1 25 14 14 62 56 55 97 80 79 46 21 28 13 26 36 92 84 98 132 75 38 22 42 106 57 47 85 51 25
30 40 49 39 36 26 15 10 10 2 -4 -0 4 1 -3 23 22 13 53 28 26 31 28 17 5 35 29 20 9 20 67 97 87 109 136 89 77 89 49 74 96 60 36 18 13
28 34 35 28 31 27 15 13 5 -1 -7 -1 3 1 -3 19 40 38 12 24 28 46 33 59 46 33 37 29 8 31 91 95 79 94 89 79 67 62 58 106 54 18 7 9 12
38 39 45 32 31 25 11 8 2 -2 -3 1 2 -2 -14 49 64 24 12 38 55 73 44 27 34 31 41 43 30 59 60 69 84 59 62 61 67 61 57 77 53 28 27 17 -9
46 52 51 44 30 15 20 13 -3 -7 -3 2 2 -5 24 47 44 14 10 25 31 43 29 26 36 29 56 56 38 76 76 79 91 67 64 74 73 55 75 84 69 49 76 36 -2
42 54 58 55 41 47 37 20 1 -4 4 4 1 8 56 56 39 20 28 26 36 43 43 43 30 26 60 53 53 55 81 97 82 73 78 62 79 102 111 96 67 86 85 50 15
40 40 46 56 51 41 24 20 9 6 6 3 4 26 49 50 37 43 31 60 44 44 55 38 30 36 29 80 31 64 51 115 118 109 93 105 70 126 155 102 88 92 76 56 25
40 40 45 56 51 47 19 20 19 17 14 14 15 32 46 50 17 29 28 62 59 44 46 30 13 45 19 39 64 10 59 61 210 171 177 111 62 236 205 132 121 104 97 59 13
45 50 49 47 50 50 4 14 21 25 31 35 59 53 57 64 54 35 47 40 49 69 44 33 23 33 37 69 63 88 77 51 114 209 217 146 94 255 208 162 166 148 101 59 36
48 59 61 52 51 51 9 33 28 19 48 44 57 63 57 36 45 65 52 52 43 35 71 61 47 45 64 66 73 49 59 46 59 186 187 172 202 112 375 299 223 189 111 78 52
54 57 60 63 55 65 30 49 62 47 28 23 30 45 45 26 55 51 66 60 88 45 50 60 71 69 51 51 47 56 68 85 54 146 112 80 98 78 347 287 260 178 163 100 69
67 75 82 63 42 90 64 62 61 26 42 7 44 54 48 52 45 30 36 44 35 66 44 77 106 72 51 65 70 61 60 68 87 83 65 66 142 54 208 224 179 229 151 130 117
79 85 76 43 20 34 72 69 23 12 32 27 34 44 41 41 58 44 27 22 56 64 53 90 98 63 60 46 58 62 113 71 91 40 58 53 48 80 124 186 205 150 125 126 146
77 85 67 50 29 37 50 29 18 4 57 37 51 62 52 46 67 50 43 47 62 68 50 96 102 70 50 83 81 75 96 69 53 45 76 49 69 97 119 119 158 141 144 142 150
60 77 38 11 10 29 31 19 -4 15 62 62 62 54 47 46 41 56 55 37 77 53 70 101 98 82 66 103 83 70 58 80 103 60 53 78 83 92 150 123 177 177 221 195 175
50 60 42 3 37 33 18 4 6 46 53 63 55 47 44 53 59 26 39 48 53 58 76 102 92 70 80 53 72 71 95 59 161 90 77 165 128 60 143 138 118 211 286 251 186
46 12 -7 -25 25 17 2 11 39 62 49 63 53 45 28 51 48 47 49 70 80 83 104 77 141 100 68 56 80 58 84 94 97 82 89 198 103 67 155 99 97 130 296 264 212
58 -13 4 12 10 2 7 17 64 43 56 53 47 23 48 35 59 34 37 96 95 81 93 112 117 116 88 104 91 59 59 118 121 136 163 159 77 63 174 119 93 76 196 210 189
32 -0 -2 60 20 -0 6 61 48 52 33 27 32 27 65 54 43 40 98 97 102 101 119 142 133 119 110 99 92 121 121 99 129 75 152 92 148 203 124 110 115 86 141 147 154
7 6 28 25 9 3 30 47 40 39 27 27 41 44 50 73 52 75 81 110 128 115 85 156 154 119 125 95 91 87 87 126 102 106 97 155 112 86 120 99 111 123 134 122 163
6 22 26 29 10 19 55 53 47 49 36 34 49 43 58 62 60 52 83 144 118 152 99 130 188 129 126 123 134 130 107 91 107 143 173 175 167 104 115 127 90 115 146 177 210
24 37 21 16 37 39 50 52 38 49 39 47 46 50 60 71 60 73 98 157 189 151 174 195 219 199 172 137 137 137 122 120 167 162 235 212 321 99 150 111 50 80 128 171 231
45 41 26 37 60 61 55 57 42 49 48 56 54 64 92 71 67 108 127 172 188 168 221 233 235 216 164 157 163 161 138 63 92 124 262 239 236 189 126 42 31 83 133 140 222
54 71 54 62 70 80 59 57 56 66 66 72 83 95 89 82 94 132 153 210 200 191 250 253 287 273 238 199 110 114 71 103 115 237 308 346 243 133 105 76 65 104 163 139 103
70 96 88 100 99 100 93 96 74 74 72 76 76 60 95 110 112 170 148 179 216 296 264 233 306 237 169 144 121 120 61 95 132 153 240 261 187 184 118 123 110 108 83 55 44
100 94 94 121 115 99 117 70 76 114 94 91 94 110 103 153 142 135 168 187 221 302 302 357 290 281 250 132 93 128 182 163 108 75 123 157 142 87 146 256 300 216 88 102 127
114 105 126 129 117 130 113 100 86 133 78 85 105 116 129 121 167 190 179 210 216 246 291 420 346 261 221 181 200 171 110 154 159 170 224 220 202 160 186 181 217 53 112 116 198
Wind_Speed
23 23 22 19 21 21 15 13 17 19 20 23 25 27 27 24 19 50 52 19 14 4 5 12 27 35 33 41 37 32 31 36 36 31 34 32 25 35 29 32 36 33 44 54 63
27 28 27 23 23 23 18 14 15 19 23 26 29 30 28 21 31 59 32 14 7 13 32 32 37 21 41 39 36 35 37 37 40 41 36 35 32 33 27 27 37 43 51 56 61
22 21 19 13 14 15 10 11 17 23 28 31 33 32 28 23 32 38 6 8 15 18 30 25 28 33 40 45 44 39 38 35 38 40 39 35 32 31 30 28 33 47 56 59 61
21 23 21 12 12 11 7 17 24 31 36 38 38 34 30 30 36 30 6 18 19 23 31 33 34 41 42 46 41 39 38 36 33 36 35 32 31 27 29 28 34 44 51 58 61
23 24 24 17 14 7 13 25 33 40 43 42 40 36 33 45 39 22 22 32 34 38 56 46 52 42 46 42 40 43 36 35 34 34 34 32 29 25 20 27 32 41 50 57 61
26 25 25 21 18 2 22 35 39 42 42 41 37 30 31 41 25 25 33 38 49 46 54 55 45 38 43 43 42 38 34 34 30 33 34 30 28 28 21 24 26 39 47 53 60
29 28 28 25 20 4 31 35 38 39 39 37 35 33 55 39 29 30 37 40 42 43 42 46 39 45 35 38 38 37 36 29 25 27 35 36 22 17 23 23 25 35 43 48 54
29 27 28 27 21 5 30 35 36 37 37 33 29 31 39 33 29 38 38 35 41 40 38 37 37 43 44 38 36 37 34 40 35 28 34 37 34 31 25 23 25 30 38 44 50
30 29 29 27 20 5 31 34 34 32 32 29 31 31 40 31 33 31 36 31 28 34 36 34 36 41 38 37 35 36 51 48 38 28 33 30 32 29 22 20 21 28 31 39 42
32 32 28 27 19 8 29 35 33 29 29 28 31 37 40 35 32 32 41 31 34 30 33 35 36 44 54 56 52 45 47 44 39 36 29 27 18 8 15 19 21 26 26 32 38
35 33 30 27 15 10 26 28 34 40 51 49 43 43 40 28 32 50 40 33 34 34 48 43 55 56 51 47 42 39 38 36 45 41 38 30 16 15 22 22 24 23 25 28 32
38 35 33 27 11 5 29 38 38 35 44 41 42 44 39 36 41 56 44 46 45 52 47 42 54 48 43 39 39 39 42 50 41 42 34 30 14 14 20 23 23 23 22 24 28
40 38 35 28 9 48 50 42 34 33 34 40 42 45 41 39 43 49 55 41 47 51 52 50 48 41 43 45 52 49 50 49 42 41 29 44 38 41 41 35 32 27 22 23 26
46 45 39 29 41 44 48 35 31 31 33 42 43 41 39 38 39 44 50 45 42 49 48 46 44 47 45 47 53 51 51 48 45 48 45 47 41 36 35 33 30 25 22 22 24
51 49 43 49 40 48 41 35 31 32 37 43 42 36 38 46 41 46 44 43 48 45 46 47 48 49 49 47 47 43 45 40 37 42 40 40 40 36 36 37 29 25 22 24 25
56 53 48 43 43 45 40 35 34 39 38 41 42 48 43 49 45 48 48 44 39 44 38 44 42 42 44 41 38 42 44 40 31 41 45 41 49 39 37 44 50 30 26 26 27
58 53 47 46 46 44 38 35 41 43 38 43 45 48 45 50 46 52 52 59 59 59 57 49 44 42 40 51 42 60 61 55 51 46 47 40 45 31 37 39 45 42 30 29 28
58 49 41 42 46 40 35 40 44 41 45 41 44 43 47 52 46 53 54 51 59 56 52 60 59 49 48 49 52 49 50 53 52 49 46 34 38 44 36 37 41 40 31 30 29
55 40 40 43 42 37 38 45 43 45 43 49 43 45 45 46 49 51 52 50 52 57 59 61 53 45 45 43 47 47 47 42 42 38 41 34 38 41 38 38 41 39 34 30 32
49 42 37 47 38 37 40 41 41 39 42 42 49 46 51 56 53 58 51 46 49 49 50 53 59 46 46 44 37 39 40 46 41 49 49 43 50 52 46 46 44 41 34 31 34
43 42 37 42 37 38 42 41 40 38 41 45 47 48 48 52 52 54 51 48 42 48 48 51 48 55 49 47 49 43 42 36 38 38 47 53 51 44 57 52 52 46 37 35 35
42 42 38 38 39 39 40 39 38 38 38 40 41 43 46 50 52 51 51 49 43 47 54 49 54 59 56 47 41 38 38 40 44 44 42 52 58 37 46 51 58 54 50 39 36
45 41 36 37 41 40 36 37 37 37 39 41 43 41 44 49 57 47 51 43 42 48 54 52 54 71 61 52 48 47 42 37 38 44 45 49 49 43 52 60 60 60 53 52 42
42 44 37 37 34 38 38 40 40 38 40 38 41 42 47 50 41 51 54 48 45 44 44 49 52 51 60 59 62 55 45 43 37 46 47 42 52 54 64 75 76 68 66 66 50
38 40 37 44 40 39 37 41 42 43 37 38 44 41 45 55 52 52 50 53 48 43 45 47 62 53 52 54 53 45 44 42 39 38 47 53 56 53 64 66 61 66 66 69 69
42 41 38 41 40 41 37 41 41 41 41 45 43 47 41 47 48 63 66 65 60 49 50 47 63 61 64 56 47 46 50 48 37 36 48 52 55 58 51 59 65 71 74 73 69
40 41 42 38 39 40 43 43 43 41 40 38 44 49 50 52 57 60 58 54 51 53 53 50 56 63 70 59 61 68 40 43 45 46 53 62 60 61 66 68 72 78 75 76 71
Wind_Direction
328 322 314 296 301 301 273 226 203 191 178 155 136 132 131 124 116 50 50 83 88 272 271 89 81 68 75 57 63 71 74 61 55 57 44 39 48 28 34 27 26 25 349 325 317
328 325 318 305 302 301 282 240 202 184 150 136 136 135 136 125 95 33 67 86 94 84 67 60 63 88 50 55 62 63 53 53 38 31 35 30 31 25 36 34 10 357 338 332 328
329 330 324 306 300 297 253 180 154 144 132 128 126 127 126 111 97 68 45 89 88 87 75 81 74 67 51 39 38 47 47 56 44 37 29 28 36 35 28 28 12 348 332 329 330
329 330 330 314 310 300 191 137 128 118 116 114 114 118 121 99 86 71 63 81 86 81 68 63 63 53 51 40 42 45 47 45 47 36 37 36 37 40 33 22 8 353 341 338 336
326 329 332 323 318 300 141 122 116 108 103 104 108 113 103 75 77 80 76 67 66 61 32 46 39 49 45 43 43 42 45 42 42 35 35 36 34 35 36 25 11 358 349 344 339
325 326 329 329 328 277 125 110 108 106 105 105 108 109 102 82 95 77 67 59 45 46 33 36 48 54 46 42 41 40 44 42 44 36 31 29 29 33 45 39 26 4 356 352 343
322 323 328 330 332 136 111 110 108 106 107 109 111 105 60 83 83 69 57 55 53 52 54 51 57 49 50 47 45 47 43 43 47 42 30 23 31 35 55 52 34 16 4 359 356
319 320 324 328 327 157 110 109 110 111 112 112 113 106 86 82 79 58 55 63 53 58 61 60 58 51 49 52 49 42 40 33 41 40 29 25 20 39 57 45 34 23 14 8 1
314 314 318 321 320 169 109 110 111 116 114 112 100 100 73 82 73 63 58 68 71 67 62 64 60 52 51 39 40 43 24 25 29 39 31 31 18 32 48 41 32 26 23 14 13
313 313 311 312 311 167 115 108 110 111 111 106 93 79 66 72 69 61 52 66 67 70 65 62 54 45 37 34 30 26 25 24 24 31 28 14 359 351 31 38 36 33 34 23 18
313 312 308 304 299 181 115 103 82 72 56 61 64 64 63 70 68 44 50 59 61 60 42 48 37 33 34 37 36 31 24 19 20 25 17 22 10 17 38 35 36 43 40 35 28
312 310 306 296 273 177 89 54 60 77 57 64 61 56 58 57 50 33 43 44 42 35 35 39 31 34 37 36 32 24 20 19 22 21 12 22 5 26 42 42 47 47 49 45 38
309 307 302 288 186 38 40 51 77 72 61 51 49 45 46 48 43 35 33 43 38 32 31 31 30 35 30 29 23 22 22 15 13 11 26 17 29 24 30 38 39 39 48 48 41
311 309 303 284 38 42 27 53 68 65 49 33 35 38 41 45 41 37 33 38 37 29 30 31 31 25 25 24 21 19 19 12 13 16 18 18 19 24 26 29 34 42 45 42 43
313 312 307 344 35 18 31 49 62 51 32 25 29 41 38 33 30 29 34 34 27 25 27 21 20 19 19 20 20 16 11 10 16 16 16 23 21 22 23 20 28 33 41 35 34
316 315 313 16 23 24 32 49 45 21 23 19 23 18 26 24 27 24 27 33 35 26 29 21 26 25 18 16 18 10 9 11 25 19 14 19 12 15 19 15 12 30 40 34 26
314 320 346 360 4 12 28 27 5 9 17 11 11 12 17 15 21 19 20 20 19 14 12 15 18 22 25 12 19 9 10 10 11 12 9 16 6 14 17 19 15 16 25 25 23
310 325 352 3 1 13 22 4 354 2 2 9 8 10 12 12 15 14 14 15 16 15 8 6 5 11 12 12 6 9 14 11 4 4 357 3 11 10 19 19 19 18 24 24 20
310 346 347 355 1 13 3 347 349 352 358 356 3 4 7 10 10 9 11 12 13 14 9 3 4 9 13 12 8 7 7 11 2 1 359 9 4 7 11 12 11 13 13 11 5
334 341 349 345 0 3 357 348 348 359 359 1 357 1 357 357 2 2 5 10 9 13 12 4 355 7 5 7 15 10 8 2 4 358 355 357 356 354 360 359 2 360 357 355 354
339 339 348 352 358 355 346 349 351 360 360 355 354 354 357 356 359 358 0 4 11 6 7 3 1 355 358 359 357 360 358 2 359 354 350 348 351 359 352 356 356 352 349 346 346
335 335 347 352 346 349 346 350 354 356 359 358 358 356 356 355 354 356 356 0 6 3 355 360 352 348 347 357 1 1 355 352 348 350 343 338 335 345 354 353 351 351 350 344 342
329 332 344 347 334 339 348 349 351 352 352 353 352 355 358 352 348 354 353 2 0 357 354 356 351 344 351 356 0 354 352 346 341 335 328 332 335 356 351 348 351 346 345 346 343
329 324 336 341 343 337 337 339 341 346 345 349 347 349 347 346 350 349 349 354 357 355 355 353 344 339 336 336 338 334 330 329 325 327 325 315 314 322 331 338 342 348 349 347 342
325 322 328 321 328 333 335 334 334 336 343 345 342 340 343 341 343 339 343 345 345 347 349 348 338 333 328 330 330 322 322 322 312 303 314 313 318 318 331 336 343 346 346 345 343
314 318 322 319 323 324 328 328 328 332 334 334 334 338 338 336 337 333 335 335 336 342 342 343 337 339 334 333 331 329 321 315 313 311 311 311 316 328 343 342 343 346 345 343 342
314 314 314 315 316 317 317 322 324 328 330 331 332 331 329 328 331 330 331 330 327 328 332 335 336 337 333 342 339 333 342 346 338 329 328 326 329 336 336 338 338 338 340 339 338